This is the latest recevied weather packets stored in our database for station/object AI5YA-13. If no packets are shown the sender has not sent any weather packets the latest 10 day(s).
| Time | Temp. | Humidity | Pressure | Rain* | Wind** | Luminosity | Snow |
|---|---|---|---|---|---|---|---|
| 1777775906 | 15.56° C | 60% | 1021.8 hPa | 0 mm | - | 0 W/m² | - |
| 1777775604 | 15.56° C | 60% | 1021.7 hPa | 0 mm | - | 0 W/m² | - |
| 1777775301 | 16.11° C | 59% | 1021.8 hPa | 0 mm | - | 0 W/m² | - |
| 1777775001 | 16.11° C | 59% | 1021.8 hPa | 0 mm | - | 0 W/m² | - |
| 1777774697 | 16.11° C | 59% | 1021.7 hPa | 0 mm | - | 0 W/m² | - |
| 1777774394 | 16.11° C | 60% | 1021.5 hPa | 0 mm | - | 0 W/m² | - |
| 1777774091 | 16.11° C | 57% | 1021.9 hPa | 0 mm | - | 0 W/m² | - |
| 1777773789 | 16.11° C | 55% | 1021.5 hPa | 0 mm | - | 0 W/m² | - |
| 1777773485 | 16.67° C | 55% | 1021.5 hPa | 0 mm | - | 0 W/m² | - |
| 1777773182 | 16.67° C | 54% | 1021.4 hPa | 0 mm | - | 0 W/m² | - |
| 1777772878 | 16.67° C | 54% | 1021.3 hPa | 0 mm | - | 0 W/m² | - |
| 1777772576 | 16.67° C | 53% | 1021.5 hPa | 0 mm | - | 0 W/m² | - |
| 1777772273 | 16.67° C | 52% | 1021.2 hPa | 0 mm | - | 0 W/m² | - |
| 1777771970 | 17.22° C | 51% | 1021.2 hPa | 0 mm | - | 1 W/m² | - |
| 1777771667 | 17.22° C | 51% | 1021.4 hPa | 0 mm | - | 4 W/m² | - |
| 1777771365 | 17.78° C | 50% | 1021.3 hPa | 0 mm | - | 8 W/m² | - |
| 1777771061 | 17.78° C | 48% | 1021.3 hPa | 0 mm | - | 13 W/m² | - |
| 1777770758 | 17.78° C | 49% | 1021.3 hPa | 0 mm | - | 18 W/m² | - |
| 1777770454 | 17.78° C | 47% | 1021.3 hPa | 0 mm | - | 20 W/m² | - |
| 1777770151 | 18.33° C | 46% | 1021.1 hPa | 0 mm | - | 25 W/m² | - |
| 1777769849 | 18.33° C | 46% | 1021.3 hPa | 0 mm | - | 33 W/m² | - |
| 1777769546 | 18.33° C | 46% | 1021.4 hPa | 0 mm | - | 41 W/m² | - |
| 1777769242 | 18.33° C | 46% | 1021.2 hPa | 0 mm | - | 46 W/m² | - |
| 1777768940 | 18.89° C | 46% | 1020.9 hPa | 0 mm | - | 57 W/m² | - |
| 1777768637 | 18.89° C | 45% | 1021.2 hPa | 0 mm | - | 68 W/m² | - |
* Rain latest hour (hover to see other rain measurements)
** Current wind speed in m/s (hover to see current wind gust speed)